�N����,����,�~����,�C��,���x,�C��,����,���ϕ���,�ő�u�ԕ���,�ő厞����,���˗�,�I�_���x,�n�����x,�ő啗���N��,DTYPE
"21/06/07","00:10",0.0,20.0,81.6,1008.3,305.9,1.1,1.6,333.5,0.00,16.8,130.0,"00:08:32",1
"21/06/07","00:20",0.0,19.9,81.8,1008.3,293.3,0.8,1.9,336.0,0.00,16.7,130.0,"00:11:12",1
"21/06/07","00:30",0.0,19.7,82.2,1008.8,297.0,1.1,2.0,323.8,0.00,16.6,130.0,"00:22:00",1
"21/06/07","00:40",0.0,19.7,82.4,1008.8,296.1,1.0,1.9,339.3,0.00,16.7,130.0,"00:31:28",1
"21/06/07","00:50",0.0,19.7,82.5,1008.6,309.6,0.7,1.2,326.3,0.00,16.7,130.0,"00:49:12",1
"21/06/07","01:00",0.0,19.7,82.3,1008.8,296.1,1.0,1.2,308.6,0.00,16.6,130.0,"00:50:40",1
"21/06/07","01:10",0.0,19.6,82.3,1008.3,328.0,1.3,2.0,345.2,0.00,16.5,130.0,"01:02:16",1
"21/06/07","01:20",0.0,19.5,82.4,1008.8,308.8,1.2,1.8,318.1,0.00,16.5,130.0,"01:18:00",1
"21/06/07","01:30",0.0,19.4,82.5,1008.6,295.1,0.8,1.1,300.5,0.00,16.4,130.0,"01:27:04",1
"21/06/07","01:40",0.0,19.3,82.5,1008.6,301.4,0.6,1.0,271.9,0.00,16.3,130.0,"01:30:32",1
"21/06/07","01:50",0.0,19.3,82.6,1008.3,311.4,1.0,1.3,322.9,0.00,16.3,130.0,"01:42:24",1
"21/06/07","02:00",0.0,19.2,82.8,1008.3,296.2,0.8,1.6,338.4,0.00,16.2,130.0,"01:58:48",1
"21/06/07","02:10",0.0,19.0,83.1,1008.1,323.0,1.3,2.0,336.8,0.00,16.1,130.0,"02:03:36",1
"21/06/07","02:20",0.0,19.0,83.3,1008.1,313.8,1.5,2.5,320.6,0.00,16.1,130.0,"02:16:24",1
"21/06/07","02:30",0.0,19.0,83.4,1008.3,288.3,0.8,1.3,302.5,0.00,16.2,130.0,"02:22:00",1
"21/06/07","02:40",0.0,19.0,83.4,1008.1,300.3,0.7,1.4,311.0,0.00,16.2,130.0,"02:35:04",1
"21/06/07","02:50",0.0,18.9,83.3,1008.8,302.0,0.3,1.2,316.6,0.00,16.0,130.0,"02:41:04",1
"21/06/07","03:00",0.0,18.9,83.4,1008.8,324.1,1.7,2.7,340.3,0.00,16.1,130.0,"02:57:52",1
"21/06/07","03:10",0.0,18.8,83.6,1008.6,324.5,1.1,1.9,334.7,0.00,16.0,130.0,"03:00:24",1
"21/06/07","03:20",0.0,18.7,83.8,1008.6,311.0,1.1,1.4,333.6,0.00,15.9,130.0,"03:14:32",1
"21/06/07","03:30",0.0,18.5,84.2,1008.8,286.8,0.8,1.4,302.0,0.00,15.8,130.0,"03:28:48",1
"21/06/07","03:40",0.0,18.5,84.6,1009.3,278.0,1.0,1.3,270.5,0.00,15.9,130.0,"03:32:16",1
"21/06/07","03:50",0.0,18.3,84.8,1009.3,302.1,1.0,1.7,320.6,0.00,15.7,130.0,"03:43:20",1
"21/06/07","04:00",0.0,18.4,84.8,1009.3,300.5,1.1,2.0,324.5,0.00,15.8,130.0,"03:59:28",1
"21/06/07","04:10",0.0,18.3,84.9,1009.5,309.8,0.8,2.1,338.4,0.00,15.8,130.0,"04:01:44",1
"21/06/07","04:20",0.0,18.3,84.9,1009.7,297.9,0.8,1.6,333.7,0.00,15.8,130.0,"04:10:08",1
"21/06/07","04:30",0.0,18.2,85.1,1010.0,302.9,1.1,2.0,336.3,0.00,15.7,130.0,"04:24:00",1
"21/06/07","04:40",0.0,18.1,85.3,1010.0,291.6,0.8,1.4,295.5,0.00,15.6,130.0,"04:30:02",1
"21/06/07","04:50",0.0,18.1,85.4,1010.2,300.8,1.0,1.6,322.4,0.00,15.7,130.0,"04:48:56",1
"21/06/07","05:00",0.0,18.2,85.5,1010.0,298.9,1.2,1.7,331.4,0.00,15.8,130.0,"04:50:40",1
"21/06/07","05:10",0.0,18.2,85.6,1010.0,296.1,1.1,1.9,323.3,0.00,15.8,130.0,"05:04:24",1
"21/06/07","05:20",0.0,18.2,85.7,1010.0,294.5,1.1,2.0,315.0,0.00,15.8,130.0,"05:12:16",1
"21/06/07","05:30",0.0,18.3,85.6,1010.2,304.4,1.1,1.7,317.8,0.00,15.9,130.0,"05:23:36",1
"21/06/07","05:40",0.0,18.2,85.5,1010.2,303.6,1.1,1.7,314.9,0.00,15.8,130.0,"05:34:16",1
"21/06/07","05:50",0.0,18.2,85.5,1010.2,302.4,1.1,1.8,328.0,0.00,15.8,130.0,"05:48:40",1
"21/06/07","06:00",0.0,18.5,85.4,1010.4,317.3,1.1,1.7,315.3,0.02,16.0,130.0,"05:51:04",1
"21/06/07","06:10",0.0,18.6,85.2,1010.0,321.9,1.1,2.0,322.4,0.01,16.1,130.0,"06:06:24",1
"21/06/07","06:20",0.0,18.8,84.7,1010.2,329.9,2.3,3.5,338.9,0.02,16.2,130.0,"06:18:16",1
"21/06/07","06:30",0.0,19.1,84.0,1010.4,329.0,1.7,3.5,344.8,0.04,16.4,130.0,"06:28:32",1
"21/06/07","06:40",0.0,19.5,83.1,1010.0,318.9,1.6,2.6,310.3,0.05,16.6,130.0,"06:33:28",1
"21/06/07","06:50",0.0,19.8,82.1,1010.4,319.9,1.2,2.8,342.4,0.07,16.7,130.0,"06:48:32",1
"21/06/07","07:00",0.0,20.2,80.9,1010.4,340.2,2.2,3.9,340.6,0.09,16.9,130.0,"06:53:04",1
"21/06/07","07:10",0.0,20.4,80.0,1010.4,358.4,0.8,1.8,340.5,0.06,16.9,130.0,"07:00:48",1
"21/06/07","07:20",0.0,21.5,79.4,1010.9,53.6,0.3,1.0,139.6,0.16,17.8,130.0,"07:18:08",1
"21/06/07","07:30",0.0,22.2,76.9,1010.4,178.8,0.3,1.0,110.5,0.17,18.0,130.0,"07:22:08",1
"21/06/07","07:40",0.0,23.2,73.5,1010.7,172.4,0.5,2.0,28.0,0.22,18.2,130.0,"07:30:02",1
"21/06/07","07:50",0.0,23.7,69.4,1010.4,11.7,1.1,2.0,325.7,0.25,17.8,130.0,"07:45:12",1
"21/06/07","08:00",0.0,23.7,67.5,1010.4,340.0,1.2,2.2,344.8,0.25,17.4,130.0,"07:52:24",1
"21/06/07","08:10",0.0,24.3,66.7,1010.2,216.9,0.3,1.4,180.8,0.27,17.8,130.0,"08:05:36",1
"21/06/07","08:20",0.0,24.7,65.0,1010.0,69.9,0.5,1.1,299.7,0.25,17.7,130.0,"08:19:36",1
"21/06/07","08:30",0.0,24.6,64.2,1009.7,1.5,0.8,2.1,350.4,0.28,17.4,130.0,"08:29:28",1
"21/06/07","08:40",0.0,24.7,64.8,1009.3,1.2,1.3,2.2,350.5,0.36,17.7,130.0,"08:32:00",1
"21/06/07","08:50",0.0,25.3,64.1,1008.8,58.6,0.7,1.8,62.8,0.32,18.1,130.0,"08:41:52",1
"21/06/07","09:00",0.0,25.4,63.1,1009.3,39.0,1.0,2.4,344.8,0.34,17.9,130.0,"08:53:12",1
"21/06/07","09:10",0.0,26.3,62.3,1009.3,15.3,0.6,1.6,0.8,0.40,18.6,130.0,"09:02:56",1
"21/06/07","09:20",0.0,26.4,61.0,1009.5,15.3,1.2,2.0,13.0,0.43,18.3,130.0,"09:12:32",1
"21/06/07","09:30",0.0,26.5,60.4,1009.7,12.0,0.8,2.0,8.1,0.44,18.3,130.0,"09:29:44",1
"21/06/07","09:40",0.0,26.8,60.1,1009.5,122.5,0.8,1.9,131.5,0.43,18.5,130.0,"09:38:00",1
"21/06/07","09:50",0.0,27.0,60.3,1009.7,174.2,1.1,3.3,124.9,0.47,18.7,130.0,"09:45:20",1
"21/06/07","10:00",0.0,27.3,59.5,1010.0,155.7,1.2,2.7,187.5,0.50,18.8,130.0,"09:52:32",1
"21/06/07","10:10",0.0,27.6,60.2,1010.0,148.7,1.2,3.2,163.3,0.50,19.2,130.0,"10:06:32",1
"21/06/07","10:20",0.0,27.6,59.7,1009.7,172.1,1.3,3.1,126.1,0.53,19.1,130.0,"10:10:40",1
"21/06/07","10:30",0.0,27.9,59.6,1009.7,183.0,1.5,3.2,192.3,0.55,19.4,130.0,"10:20:24",1
"21/06/07","10:40",0.0,28.3,59.3,1010.0,149.7,1.5,3.5,170.8,0.56,19.6,130.0,"10:39:36",1
"21/06/07","10:50",0.0,28.6,59.3,1010.0,143.9,1.3,2.6,158.4,0.54,19.9,130.0,"10:47:28",1
"21/06/07","11:00",0.0,27.9,58.5,1010.0,151.9,1.3,3.2,201.1,0.34,19.1,130.0,"10:50:24",1
"21/06/07","11:10",0.0,28.5,59.5,1009.5,130.1,1.0,2.2,121.7,0.47,19.9,130.0,"11:09:36",1
"21/06/07","11:20",0.0,29.0,58.0,1009.3,145.8,1.6,3.4,179.5,0.58,19.9,130.0,"11:15:52",1
"21/06/07","11:30",0.0,29.8,57.0,1009.5,148.9,1.2,3.1,174.6,0.61,20.4,130.0,"11:29:52",1
"21/06/07","11:40",0.0,29.7,56.6,1010.0,164.7,1.7,3.3,155.0,0.59,20.2,130.0,"11:38:08",1
"21/06/07","11:50",0.0,29.5,55.7,1009.3,162.6,2.0,3.7,147.7,0.61,19.8,130.0,"11:49:20",1
"21/06/07","12:00",0.0,29.5,55.1,1009.3,180.8,1.3,3.3,168.4,0.47,19.6,130.0,"11:55:52",1
"21/06/07","12:10",0.0,29.9,57.1,1009.3,154.8,1.5,3.4,130.0,0.50,20.5,130.0,"12:08:24",1
"21/06/07","12:20",0.0,30.3,54.3,1009.3,161.0,1.5,4.0,147.0,0.59,20.1,130.0,"12:17:20",1
"21/06/07","12:30",0.0,30.6,53.5,1009.0,155.8,1.6,3.4,170.1,0.62,20.1,130.0,"12:25:04",1
"21/06/07","12:40",0.0,30.5,53.9,1009.5,187.9,2.0,5.0,221.7,0.55,20.2,130.0,"12:36:00",1
"21/06/07","12:50",0.0,30.4,55.5,1009.3,183.2,2.1,3.6,151.1,0.52,20.5,130.0,"12:43:12",1
"21/06/07","13:00",0.0,30.7,54.8,1009.0,182.1,1.5,3.2,206.8,0.50,20.6,130.0,"12:50:48",1
"21/06/07","13:10",0.0,30.7,52.6,1009.3,133.6,1.5,3.5,173.8,0.46,19.9,130.0,"13:00:56",1
"21/06/07","13:20",0.0,30.1,52.9,1009.0,138.5,1.5,4.2,145.3,0.30,19.5,130.0,"13:13:12",1
"21/06/07","13:30",0.0,30.3,53.9,1008.8,179.4,1.3,4.1,143.1,0.33,20.0,130.0,"13:23:12",1
"21/06/07","13:40",0.0,31.0,51.2,1008.8,164.7,1.3,2.8,193.3,0.41,19.8,130.0,"13:37:12",1
"21/06/07","13:50",0.0,31.0,50.2,1008.8,157.0,1.6,3.4,186.9,0.45,19.5,130.0,"13:46:56",1
"21/06/07","14:00",0.0,31.3,48.7,1008.6,193.1,1.5,3.4,187.6,0.45,19.3,130.0,"13:59:04",1
"21/06/07","14:10",0.0,31.6,45.4,1009.0,158.6,1.3,2.1,197.0,0.40,18.4,130.0,"14:06:16",1
"21/06/07","14:20",0.0,31.6,47.2,1008.8,106.7,1.3,2.7,193.9,0.39,19.0,130.0,"14:19:12",1
"21/06/07","14:30",0.0,32.1,46.3,1009.0,193.4,0.8,3.5,154.3,0.43,19.2,130.0,"14:21:36",1
"21/06/07","14:40",0.0,32.3,47.6,1009.3,166.7,1.3,3.3,228.8,0.45,19.8,130.0,"14:31:28",1
"21/06/07","14:50",0.0,32.2,49.0,1008.8,177.7,1.3,3.1,229.5,0.43,20.2,130.0,"14:40:40",1
"21/06/07","15:00",0.0,32.0,47.8,1008.6,196.3,2.1,4.2,228.5,0.46,19.6,130.0,"14:55:36",1
"21/06/07","15:10",0.0,32.4,46.2,1008.8,183.0,1.1,4.4,187.0,0.38,19.4,130.0,"15:00:32",1
"21/06/07","15:20",0.0,31.9,46.8,1008.8,182.1,2.0,4.1,221.8,0.39,19.2,130.0,"15:13:36",1
"21/06/07","15:30",0.0,31.6,48.1,1008.8,185.6,1.8,3.9,215.8,0.34,19.3,130.0,"15:20:08",1
"21/06/07","15:40",0.0,31.2,49.2,1008.3,206.4,2.1,4.1,200.2,0.29,19.3,130.0,"15:38:24",1
"21/06/07","15:50",0.0,31.4,48.3,1008.3,202.1,2.1,3.5,178.6,0.31,19.2,130.0,"15:48:56",1
"21/06/07","16:00",0.0,31.7,48.5,1008.1,192.6,1.5,3.2,219.3,0.31,19.6,130.0,"15:50:02",1
"21/06/07","16:10",0.0,31.5,48.8,1008.3,192.6,1.6,3.7,173.6,0.26,19.5,130.0,"16:05:12",1
"21/06/07","16:20",0.0,31.2,49.0,1008.1,192.8,2.1,3.7,182.4,0.23,19.3,130.0,"16:10:24",1
"21/06/07","16:30",0.0,30.9,47.4,1007.8,200.4,2.1,3.4,189.9,0.18,18.5,130.0,"16:20:32",1
"21/06/07","16:40",0.0,30.8,48.5,1007.6,195.7,1.7,2.9,208.8,0.14,18.7,130.0,"16:34:24",1
"21/06/07","16:50",0.0,30.7,48.3,1007.6,190.3,2.1,3.4,218.0,0.14,18.6,130.0,"16:41:44",1
"21/06/07","17:00",0.0,30.5,49.4,1007.6,202.5,1.7,3.4,205.5,0.09,18.8,130.0,"16:50:16",1
"21/06/07","17:10",0.0,30.4,50.1,1007.6,190.6,1.1,2.4,184.9,0.09,18.9,130.0,"17:01:36",1
"21/06/07","17:20",0.0,30.7,49.4,1007.6,220.0,0.7,2.1,287.2,0.08,18.9,130.0,"17:15:52",1
"21/06/07","17:30",0.0,30.4,50.1,1007.6,241.2,1.3,3.5,231.7,0.07,18.9,130.0,"17:27:28",1
"21/06/07","17:40",0.0,30.1,50.7,1007.4,240.2,1.1,2.5,225.8,0.08,18.8,130.0,"17:34:08",1
"21/06/07","17:50",0.0,29.8,47.0,1007.4,317.6,1.7,4.9,335.6,0.07,17.3,130.0,"17:49:44",1
"21/06/07","18:00",0.0,29.3,46.8,1007.1,325.5,3.0,4.8,338.1,0.06,16.8,130.0,"17:54:48",1
"21/06/07","18:10",0.0,29.0,46.6,1006.9,332.9,2.6,4.2,346.0,0.04,16.5,130.0,"18:02:16",1
"21/06/07","18:20",0.0,28.8,48.1,1006.9,335.8,1.5,3.5,344.2,0.03,16.8,130.0,"18:17:36",1
"21/06/07","18:30",0.0,28.4,49.6,1006.9,339.2,1.5,2.9,331.5,0.03,16.9,130.0,"18:21:52",1
"21/06/07","18:40",0.0,27.9,51.0,1006.9,343.6,1.7,3.3,345.5,0.02,16.9,130.0,"18:36:40",1
"21/06/07","18:50",0.0,27.5,50.5,1007.1,344.6,1.7,4.1,346.6,0.01,16.4,130.0,"18:42:16",1
"21/06/07","19:00",0.0,27.3,48.8,1007.4,346.1,2.0,4.0,333.7,0.00,15.6,130.0,"18:56:40",1
"21/06/07","19:10",0.0,27.1,50.1,1007.6,344.7,1.7,3.5,350.1,0.00,15.9,130.0,"19:09:20",1
"21/06/07","19:20",0.0,26.5,51.3,1007.8,338.3,2.0,3.6,328.6,0.00,15.7,130.0,"19:19:52",1
"21/06/07","19:30",0.0,26.2,52.5,1007.6,330.3,1.5,2.9,0.6,0.00,15.8,130.0,"19:20:40",1
"21/06/07","19:40",0.0,25.7,53.7,1007.8,314.6,1.0,2.2,336.6,0.00,15.7,130.0,"19:37:36",1
"21/06/07","19:50",0.0,25.3,54.3,1007.8,284.1,1.1,2.2,329.1,0.00,15.5,130.0,"19:43:20",1
"21/06/07","20:00",0.0,25.2,55.2,1008.3,267.2,1.0,1.7,235.3,0.00,15.6,130.0,"19:58:32",1
"21/06/07","20:10",0.0,25.1,55.2,1008.3,264.9,1.0,2.1,247.3,0.00,15.5,130.0,"20:02:40",1
"21/06/07","20:20",0.0,24.6,56.9,1008.3,303.7,1.1,1.8,323.6,0.00,15.5,130.0,"20:10:32",1
"21/06/07","20:30",0.0,24.2,58.0,1008.6,315.7,1.2,2.4,335.9,0.00,15.5,130.0,"20:27:28",1
"21/06/07","20:40",0.0,23.9,60.1,1008.8,316.8,1.7,2.9,333.1,0.00,15.7,130.0,"20:30:40",1
"21/06/07","20:50",0.0,23.5,62.4,1008.8,327.4,1.7,2.6,343.8,0.00,15.9,130.0,"20:49:28",1
"21/06/07","21:00",0.0,23.3,63.4,1009.3,335.6,2.6,4.2,338.4,0.00,16.0,130.0,"20:54:56",1
"21/06/07","21:10",0.0,23.1,64.4,1009.5,334.5,3.0,4.5,331.1,0.00,16.1,130.0,"21:04:32",1
"21/06/07","21:20",0.0,23.0,64.6,1009.5,338.1,2.6,3.7,342.0,0.00,16.0,130.0,"21:13:04",1
"21/06/07","21:30",0.0,22.8,64.9,1010.0,337.4,2.5,4.7,343.5,0.00,15.9,130.0,"21:25:28",1
"21/06/07","21:40",0.0,22.6,65.4,1010.4,341.3,2.0,3.3,345.5,0.00,15.8,130.0,"21:36:40",1
"21/06/07","21:50",0.0,22.4,65.8,1010.2,337.0,2.2,3.5,336.1,0.00,15.7,130.0,"21:48:16",1
"21/06/07","22:00",0.0,22.3,65.9,1010.4,339.9,2.2,3.4,339.5,0.00,15.7,130.0,"21:54:08",1
"21/06/07","22:10",0.0,22.2,65.2,1010.2,341.1,2.1,3.9,346.9,0.00,15.4,130.0,"22:08:24",1
"21/06/07","22:20",0.0,22.1,65.5,1010.2,344.6,1.8,3.4,345.8,0.00,15.4,130.0,"22:16:40",1
"21/06/07","22:30",0.0,21.7,66.1,1010.2,338.6,2.1,3.3,320.1,0.00,15.1,130.0,"22:21:28",1
"21/06/07","22:40",0.0,21.6,66.2,1010.4,340.1,1.7,3.3,335.6,0.00,15.1,130.0,"22:35:52",1
"21/06/07","22:50",0.0,21.5,66.6,1010.9,342.9,1.8,2.9,353.4,0.00,15.1,130.0,"22:45:04",1
"21/06/07","23:00",0.0,21.3,67.2,1010.7,342.6,1.8,4.0,347.3,0.00,15.0,130.0,"22:56:56",1
"21/06/07","23:10",0.0,21.1,67.8,1010.7,343.8,1.8,3.5,337.2,0.00,15.0,130.0,"23:06:40",1
"21/06/07","23:20",0.0,21.2,67.7,1010.4,348.8,1.5,2.6,0.4,0.00,15.0,130.0,"23:11:36",1
"21/06/07","23:30",0.0,21.1,68.0,1010.9,346.2,1.6,2.5,339.6,0.00,15.0,130.0,"23:29:36",1
"21/06/07","23:40",0.0,20.9,68.5,1010.9,339.6,1.7,3.1,341.7,0.00,14.9,130.0,"23:31:20",1
"21/06/07","23:50",0.0,20.5,69.3,1010.7,322.5,1.3,2.4,327.1,0.00,14.7,130.0,"23:42:16",1
"21/06/07","24:00",0.0,20.2,70.2,1010.7,336.1,2.1,3.3,337.7,0.00,14.6,130.0,"23:56:08",1
